Regional Weather Roundup
Issued by NWS

Home | Current Version | Previous Version | Text Only | Print | Product List | Glossary Off
Versions: 1 2 3 4 5 6 7 8 9 10 11 12 13 14 15 16 17 18 19 20 21 22 23 24 25 26 27

000
ASUS45 KPSR 180410
RWRAZ

ARIZONA HOURLY REGIONAL WEATHER ROUNDUP
NATIONAL WEATHER SERVICE PHOENIX AZ
900 PM MST FRI NOV 17 2017

NOTE: FAIR INDICATES FEW OR NO CLOUDS BELOW 12,000 FEET WITH NO
SIGNIFICANT WEATHER AND/OR OBSTRUCTIONS TO VISIBILITY.

AZZ001>003-036-180500-
NORTHWEST ARIZONA

CITY           SKY/WX    TMP DP  RH WIND       PRES   REMARKS
BULLHEAD CITY  CLEAR     73  41  31 S9        29.96R
KINGMAN        CLEAR     58  38  47 SW10      30.07R
$$

AZZ004>008-015-016-018-180500-
NORTH CENTRAL ARIZONA

CITY           SKY/WX    TMP DP  RH WIND       PRES   REMARKS
GRAND CANYON   CLOUDY    43  34  70 SW6       30.15R
WILLIAMS       CLEAR     41  34  75 S6        30.18R
PRESCOTT       MOCLDY    53  37  54 CALM      30.13R
FLAGSTAFF      PTCLDY    35  32  88 NE3       30.19R
PAYSON           N/A     46  41  81 CALM      30.15R
PAGE           CLOUDY    49  34  56 W13G18    30.10R
$$

AZZ009>014-017-180500-
NORTHEAST ARIZONA

CITY           SKY/WX    TMP DP  RH WIND       PRES   REMARKS
WINSLOW        PTCLDY    53  38  56 W12       30.07R
SAINT JOHNS    PTCLDY    54  32  43 SW21G31   30.04R
WINDOW ROCK    MOCLDY    46  37  71 SW15G24   30.05S
SHOW LOW       PTCLDY    48  32  53 S14       30.14S
$$

AZZ540-542>544-546-548-180500-
GREATER PHOENIX AREA

CITY           SKY/WX    TMP DP  RH WIND       PRES   REMARKS
PHOENIX        CLOUDY    72  41  32 E3        29.95R
BUCKEYE        CLOUDY    64  54  68 N7        29.98R
LUKE AFB       CLOUDY    64  47  53 NW6       29.95R HAZE
DEER VALLEY    CLOUDY    66  41  40 CALM      29.97R
SCOTTSDALE     MOCLDY    69  43  38 CALM      29.98S
MESA-GATEWAY   MOCLDY    68  37  32 CALM      29.98R
CHANDLER       CLEAR     70  39  32 CALM      29.96S
$$

AZZ539-553-180500-
SOUTHWEST MARICOPA COUNTY AND PINAL COUNTY

CITY           SKY/WX    TMP DP  RH WIND       PRES   REMARKS
CASA GRANDE    NOT AVBL
GILA BEND      MOCLDY    75  41  29 SW3       29.96R
$$

AZZ503-504-507>509-180500-
SOUTHEAST ARIZONA

CITY           SKY/WX    TMP DP  RH WIND       PRES   REMARKS
TUCSON         CLOUDY    68  34  28 W6        30.06R
DAVIS-MONTHAN  CLOUDY    67  34  29 W6        30.03R
NOGALES        CLEAR     57  28  33 E6        30.11R
SIERRA VISTA   CLEAR     61  23  23 SW6       30.14S
DOUGLAS        CLEAR     55  21  26 N8        30.10R
SAFFORD        MOCLDY    66  31  27 NW9       30.00S
$$

AZZ532-180500-
SOUTHWEST ARIZONA

CITY           SKY/WX    TMP DP  RH WIND       PRES   REMARKS
YUMA           CLOUDY    73  50  44 CALM      29.95R
$$

CAZ041-043-047-048-061-525>527-560>570-180500-
SOUTHERN CALIFORNIA

CITY           SKY/WX    TMP DP  RH WIND       PRES   REMARKS
DOWNTOWN L.A.  CLEAR     63  57  81 CALM      30.05R
L.A. AIRPORT   PTCLDY    64  58  80 W13       30.06R
SAN DIEGO      MOCLDY    65  60  84 CALM      30.10R
BURBANK        CLEAR     64  59  83 CALM      30.06R
ONTARIO        PTCLDY    62  57  83 SW6       30.07R
RIVERSIDE      PTCLDY    61  58  90 W3        30.07R
PALM SPRINGS   PTCLDY    73  49  42 NW12G21   29.98R
EL CENTRO NAS  MOCLDY    71  45  39 NW7       29.96S
IMPERIAL       MOCLDY    73  48  41 W6        29.94R
BLYTHE         CLEAR     67  51  56 MISG      29.96R
NEEDLES        CLEAR     72  42  34 W12       29.97R
$$

NVZ020-UTZ003-180500-
SOUTHERN NEVADA-UTAH

CITY           SKY/WX    TMP DP  RH WIND       PRES   REMARKS
LAS VEGAS      PTCLDY    66  12  12 N26G41    30.05R
SALT LAKE CITY MOCLDY    36  26  67 N5        30.25R WCI  32
$$

NMZ009-TXZ055-180500-
NEW MEXICO-WEST TEXAS

CITY           SKY/WX    TMP DP  RH WIND       PRES   REMARKS
ALBUQUERQUE    CLOUDY    56  39  53 VRB5      29.99S
EL PASO        MOCLDY    74  18  12 W14       29.99R
$$


........................KEY........................
SKY/WX - SKY CONDITION/WEATHER
TMP    - TEMPERATURE IN FAHRENHEIT
DP     - DEW POINT IN FAHRENHEIT
RH     - RELATIVE HUMIDITY IN PERCENT
WIND   - DIRECTION AND SPEED IN MILES PER HOUR (MPH)
VRB    - VARIABLE WIND DIRECTION
PRES   - MEAN SEA LEVEL PRESSURE IN INCHES OF MERCURY
         F - FALLING PRESSURE   R - RISING PRESSURE
         S - STEADY PRESSURE
VSB    - VISIBILITY IN MILES
HX     - HEAT INDEX IN FAHRENHEIT
WCI    - WIND CHILL INDEX IN FAHRENHEIT
TC     - TEMPERATURE IN CELSIUS WHICH IS ALSO KNOWN AS
         TEMPERATURE IN CENTIGRADE
AFB    - AIR FORCE BASE
         LUKE AFB IS LUKE AIR FORCE BASE
         DAVIS-MONTHAN IS DAVIS-MONTHAN AIR FORCE BASE
NAS    - NAVAL AIR STATION
         EL CENTRO NAS IS EL CENTRO NAVAL AIR STATION
N/A    - NOT AVAILABLE





USA.gov is the U.S. government's official web portal to all federal, state and local government web resources and services.